Weather History for Elkins, WV

Change the Weather History Date:

Sunday, May 5, 2013

  Actual Average Record
Temperature  
Mean Temperature 58 °F 55 °F  
Max Temperature 71 °F 68 °F 87 °F (1950)
Min Temperature 45 °F 42 °F 26 °F (1976)
Degree Days  
Heating Degree Days 7 10  
Month to date heating degree days 40 53  
Since 1 July heating degree days 5598 5616  
Cooling Degree Days 0 0  
Month to date cooling degree days 0 0  
Year to date cooling degree days 3 3  
Growing Degree Days 8 (Base 50)    
Moisture  
Dew Point 28 °F    
Average Humidity 35    
Maximum Humidity 54    
Minimum Humidity 15    
Precipitation  
Precipitation 0.00 in 0.16 in 1.15 in (1908)
Month to date precipitation 0.00 0.74  
Year to date precipitation 12.58 14.83  
Snow  
Snow 0.00 in - - ()
Month to date snowfall 0.0  
Since 1 September snowfall 77.5  
Snow Depth 0.00 in    
Sea Level Pressure  
Sea Level Pressure 30.08 in    
Wind  
Wind Speed 6 mph (SE)    
Max Wind Speed 21 mph    
Max Gust Speed 30 mph    
Visibility 10 miles    
Events      
T = Trace of Precipitation, MM = Missing Value Source: NWS Daily Summary

Daily Weather History Graph

Daily Weather History Graph

Search for Another Location

Airport:

Trip Planner

Search our weather history database for the weather conditions in past years. The results will help you decide how hot, cold, wet, or windy it might be!

Date:

Astronomy

May. 05, 2013 Rise Set
Actual Time 6:16 AM EDT 8:16 PM EDT
Civil Twilight 5:47 AM EDT 8:45 PM EDT
Nautical Twilight 5:12 AM EDT 9:20 PM EDT
Astronomical Twilight 4:33 AM EDT 9:59 PM EDT
Moon 3:44 AM EDT (5/5) 4:15 PM EDT (5/5)
Length of Visible Light 14h 57m
Length of Day
13h 59m
Waning Crescent, 18% of the Moon is Illuminated
May 5
Waning Crescent
May 9
New
May 18
First Quarter
May 25
Full
May 31
Last Quarter

Hourly Weather History & Observations

Time (EDT) Temp. Windchill Dew Point Humidity Pressure Visibility Wind Dir Wind Speed Gust Speed Precip Events Conditions
12:51 AM 53.1 °F - 35.1 °F 50% 30.14 in 10.0 mi Variable 5.8 mph 18.4 mph N/A   Clear
1:51 AM 52.0 °F - 36.0 °F 54% 30.13 in 10.0 mi Calm Calm - N/A   Clear
2:51 AM 51.1 °F - 30.9 °F 46% 30.11 in 10.0 mi Calm Calm - N/A   Clear
3:51 AM 48.9 °F - 25.0 °F 39% 30.10 in 10.0 mi South 8.1 mph - N/A   Clear
4:51 AM 46.0 °F 44.8 °F 27.0 °F 47% 30.10 in 10.0 mi NNW 3.5 mph - N/A   Clear
5:51 AM 46.0 °F - 26.1 °F 46% 30.10 in 10.0 mi Calm Calm - N/A   Clear
6:51 AM 46.9 °F - 27.0 °F 46% 30.11 in 10.0 mi Calm Calm - N/A   Clear
7:51 AM 51.1 °F - 21.0 °F 31% 30.11 in 10.0 mi Variable 4.6 mph - N/A   Clear
8:51 AM 54.0 °F - 18.0 °F 24% 30.10 in 10.0 mi Variable 4.6 mph - N/A   Clear
9:51 AM 57.9 °F - 16.0 °F 19% 30.08 in 10.0 mi Variable 4.6 mph - N/A   Clear
10:51 AM 61.0 °F - 16.0 °F 17% 30.07 in 10.0 mi Variable 4.6 mph - N/A   Clear
11:51 AM 64.9 °F - 16.0 °F 15% 30.07 in 10.0 mi Variable 6.9 mph - N/A   Clear
12:51 PM 66.9 °F - 18.0 °F 15% 30.06 in 10.0 mi SE 12.7 mph 27.6 mph N/A   Clear
1:51 PM 69.1 °F - 19.9 °F 15% 30.05 in 10.0 mi SSE 16.1 mph 25.3 mph N/A   Clear
2:51 PM 70.0 °F - 21.9 °F 16% 30.03 in 10.0 mi SSE 12.7 mph 20.7 mph N/A   Clear
3:51 PM 71.1 °F - 24.1 °F 17% 30.02 in 10.0 mi ESE 9.2 mph 29.9 mph N/A   Clear
4:51 PM 68.0 °F - 33.1 °F 27% 30.02 in 10.0 mi Variable 6.9 mph - N/A   Clear
5:51 PM 68.0 °F - 37.9 °F 33% 30.03 in 10.0 mi ESE 9.2 mph 17.3 mph N/A   Clear
6:51 PM 64.0 °F - 35.1 °F 34% 30.04 in 10.0 mi Variable 3.5 mph - N/A   Clear
7:51 PM 61.0 °F - 35.1 °F 38% 30.04 in 10.0 mi Variable 6.9 mph - N/A   Clear
8:51 PM 57.9 °F - 35.1 °F 42% 30.06 in 10.0 mi Variable 6.9 mph - N/A   Clear
9:51 PM 55.9 °F - 35.1 °F 45% 30.07 in 10.0 mi SSE 4.6 mph - N/A   Clear
10:51 PM 55.0 °F - 35.1 °F 47% 30.08 in 10.0 mi ESE 4.6 mph - N/A   Mostly Cloudy
11:51 PM 53.1 °F - 37.0 °F 55% 30.07 in 10.0 mi Variable 4.6 mph - N/A   Clear